Location: Easthampton
(42.2676°N, 72.6690°W)
Time: 04:11:30
(UTC+00:00)

RS-44 - Pass Details

Date: 25 April 2024
Orbit: 1174 x 1511 km, 82.5° (Epoch: 27 May)

Event Time Altitude Azimuth Distance (km) Brightness Sun altitude
Rises 02:39:04 0° 251° (WSW) 4,612 ? -26.9°
Reaches altitude 10° 02:44:22 10° 278° (W) 3,587 ? -27.5°
Maximum altitude 02:47:56 13° 303° (WNW) 3,319 ? -27.9°
Drops below altitude 10° 02:51:26 10° 328° (NNW) 3,501 ? -28.2°
Sets 02:56:31 0° 355° (N) 4,401 ? -28.7°
